Regional Weather Roundup
Issued by NWS Green Bay, WI

Home | Current Version | Previous Version | Graphics & Text | Print | Product List | Glossary Off
Versions: 1 2 3 4 5 6 7 8 9 10 11 12 13 14 15 16 17 18 19 20 21 22 23 24 25 26 27 28 29 30 31 32 33 34 35 36 37 38 39 40 41 42 43 44 45 46 47 48 49 50

000
ASUS43 KGRB 260259
RWRGRB

NORTH-CENTRAL AND NORTHEAST WISCONSIN REGIONAL WEATHER ROUNDUP
NATIONAL WEATHER SERVICE GREEN BAY WI
1000 PM CDT SAT APR 25 2015

WIZ005-009-010>012-018-019-260400-
NORTH CENTRAL WISCONSIN

CITY           SKY/WX    TMP DP  RH WIND       PRES   REMARKS
IRONWOOD       CLEAR     34  27  75 CALM      30.00R
MANITOWISH WTR NOT AVBL
ARBOR VITAE    NOT AVBL
EAGLE RIVER    NOT AVBL
LAND O LAKES   NOT AVBL
RHINELANDER    CLEAR     42  21  43 NE5       29.96R
PHILLIPS       CLEAR     40  24  54 NE9       29.96R
ANTIGO         NOT AVBL
TOMAHAWK       NOT AVBL
MERRILL        NOT AVBL
$$

WIZ013-073-260400-
NORTHEAST WISCONSIN

CITY           SKY/WX    TMP DP  RH WIND       PRES   REMARKS
IRON MOUNTAIN  CLEAR     36  17  46 N3        29.97R
MARINETTE      CLEAR     39  21  48 NE9       29.96R
$$

WIZ017-030-035>037-045-260400-
CENTRAL WISCONSIN

CITY           SKY/WX    TMP DP  RH WIND       PRES   REMARKS
MEDFORD        NOT AVBL
WAUSAU         CLEAR     42  19  39 E6        29.93R
MOSINEE        CLEAR     41  18  38 E6        29.95R
MARSHFIELD     CLEAR     43  21  41 SE6       29.92R
WISC RAPIDS    CLEAR     42  15  33 CALM      29.95R
STEVENS POINT  NOT AVBL
WAUPACA        CLEAR     40  17  39 CALM      29.94S
SHAWANO        CLEAR     42  25  50 NE6       29.95R
CLINTONVILLE   CLEAR     39  18  41 NE3       29.94S
$$

WIZ038-039-048-051-260400-
FOX VALLEY

CITY           SKY/WX    TMP DP  RH WIND       PRES   REMARKS
NWS GREEN BAY  CLEAR     42  28  57 NE10      29.94R
APPLETON       PTCLDY    37  14  38 N7        29.93R
OSHKOSH        CLEAR     43  22  43 NE9       29.92R
FOND DU LAC    CLEAR     40  15  36 NE6       29.92R
$$

WIZ022-050-052-260400-
EAST CENTRAL WISCONSIN

CITY           SKY/WX    TMP DP  RH WIND       PRES   REMARKS
STURGEON BAY   CLEAR     39  19  45 N7        29.97R
MANITOWOC      NOT AVBL
SHEBOYGAN      CLEAR     39  23  52 N7        29.91R
$$

LMZ563-521-522-541>543-260400-
LAKESHORE

STATION/POSITION TIME  TEMP    WIND        PRES    VSBY  WAVE
                       AIR SEA DIR/SP/G                  HT/PER
                 (UTC) (F)     (DEG/KT/KT) (MB)    (MI)  (FT/S)
SHEBOYGAN LKSHOR 0200   42      10/ 17/ 20 1013.2R
KEWAUNEE LKSHORE 0200   41      30/ 11/ 15 1012.6R
NORTHPORT PIER   0200   41     360/ 11/ 13 1014.2S
CHAMBERS ISLAND  0200   42      10/ 16/ 19 1014.2R
MENOMINEE LKSHOR 0200   42      20/ 16/ 18 1014.9R
$$


USA.gov is the U.S. government's official web portal to all federal, state and local government web resources and services.